Location: Limerick
(52.6800°N, 8.6400°W)
Time: 22:27:54
(UTC+00:00)

Daily predictions for brighter satellites

Satellite Brightness Start Highest point End
(mag) Time Altitude Azimuth Time Altitude Azimuth Time Altitude Azimuth
ATLAS 2AS CENTAUR R/B 3.1 16:50:53 10° NW 16:58:59 72° NE 17:07:00 10° ESE
Cosmos 2341 Rocket 4.1 16:53:00 10° S 16:59:13 68° E 17:05:31 10° NNE
Meteor 2-9 Rocket 4.3 16:55:26 10° N 17:00:43 54° ENE 17:06:04 10° SSE
Cosmos 1602 Rocket 4.0 16:55:48 10° SSW 17:00:11 66° WNW 17:04:33 10° N
H-2A R/B 2.8 16:56:05 10° SE 17:00:12 35° ENE 17:04:17 10° N
Cosmos 1727 Rocket 4.3 16:56:12 10° N 17:02:18 46° ENE 17:08:21 10° SE
Cosmos 921 Rocket 3.1 16:57:34 10° NNW 17:01:57 62° ENE 17:06:22 10° SSE
Cosmos 1666 3.7 16:58:30 10° N 17:01:55 27° ENE 17:05:20 10° SE
NOSS 0 Rocket 4.4 16:58:55 10° NW 17:05:02 69° WSW 17:11:08 10° SSE
Cosmos 2333 Rocket 2.2 17:00:41 10° NNW 17:06:22 85° ENE 17:12:02 10° SSE
DELTA 2 R/B 2.5 17:01:21 10° W 17:03:54 33° NNW 17:06:07 10° NE
Cosmos 1437 Rocket 3.4 17:03:31 10° SSE 17:07:16 39° E 17:11:00 10° NNE
Cosmos 2154 Rocket 4.1 17:04:29 10° S 17:10:48 86° E 17:17:11 10° N
CZ-2C R/B 3.3 17:04:46 10° ENE 17:05:51 11° ENE 17:06:56 10° NE
Resurs 01 Rocket 2.3 17:04:46 10° SE 17:08:42 32° ENE 17:12:38 10° N
SL-16 R/B 2.7 17:04:47 10° NNE 17:10:54 57° E 17:16:57 10° S
SL-08 ROCKET BODY 4.4 17:06:57 10° S 17:12:49 88° E 17:18:50 10° N
ADEOS II 2.1 17:07:20 10° SSE 17:12:34 74° ENE 17:17:50 10° NNW
CZ-2C R/B 4.2 17:08:17 10° ENE 17:09:52 12° NE 17:11:27 10° NNE
Cosmos 1743 3.3 17:08:45 10° NNW 17:12:39 64° W 17:16:29 10° S
CZ-4C R/B 3.6 17:10:52 10° NW 17:17:29 56° SW 17:24:43 10° SSE
USA 234 3.3 17:12:15 10° E 17:18:46 74° NNE 17:25:18 10° WNW
Cosmos 1812 4.0 17:12:37 10° SW 17:16:22 43° WNW 17:20:08 10° N
CZ-2C R/B 4.3 17:12:56 10° N 17:17:42 40° WNW 17:22:41 10° SW
Meteor 2-4 Rocket 3.9 17:13:25 10° S 17:18:59 60° E 17:24:44 10° NNE
CORIOLIS 4.3 17:14:57 10° SE 17:20:07 52° ENE 17:25:18 10° N
Okean 2 3.8 17:15:35 10° SSW 17:19:46 70° WNW 17:23:58 10° N
Cosmos 1937 Rocket 3.8 17:16:48 10° NNW 17:22:04 73° WSW 17:27:15 10° SSE
Meteor 1-23 Rocket 4.2 17:18:48 10° S 17:24:23 87° ESE 17:30:03 10° NNE
Meteor 1-31 Rocket 3.5 17:18:55 10° S 17:22:44 59° W 17:26:33 10° NNW
BREEZE-M DEB (TANK) 2.8 17:22:04 10° WSW 17:24:21 46° SSE 17:29:37 10° E
Cosmos 2227 Rocket 2.5 17:22:38 10° S 17:28:02 50° ESE 17:33:29 10° NE
CZ-4 R/B 4.4 17:23:24 10° SSE 17:27:32 70° ENE 17:31:42 10° N
Cosmos 1603 4.0 17:25:17 10° NNW 17:30:43 46° NE 17:36:05 10° ESE
Cosmos 1953 4.4 17:28:51 10° NE 17:29:06 11° NE 17:29:06 11° NE
Meteor 1-29 3.8 17:29:00 10° N 17:32:26 51° WNW 17:35:51 10° SSW
Cosmos 1340 Rocket 3.1 17:29:05 10° N 17:32:52 41° ENE 17:36:39 10° SE
IDEFIX/ARIANE 42P 4.3 17:31:06 11° NE 17:31:12 11° NE 17:32:43 10° NNE
Cosmos 1295 Rocket 4.4 17:31:03 10° S 17:37:04 71° E 17:43:11 10° NNE
Cosmos 2219 Rocket 3.5 17:31:26 10° NW 17:36:48 45° WSW 17:42:07 10° S
YAOGAN 1 3.3 17:31:40 10° S 17:35:56 58° W 17:40:15 10° NNW
Cosmos 2084 Rocket 3.6 17:31:57 10° SSW 17:35:56 54° SE 17:39:12 15° ENE
ISS -3.1 17:34:07 10° WSW 17:37:24 68° S 17:39:56 16° E
SL-8 Rocket 4.0 17:34:12 10° S 17:40:21 75° E 17:46:34 10° NNE
Cosmos-2242 3.2 17:35:53 10° N 17:40:13 51° ENE 17:44:29 10° SSE
Spot 2 Rocket 3.5 17:36:40 10° SSE 17:41:47 82° ENE 17:46:54 10° NNW
Cosmos 1814 Rocket 3.9 17:37:00 10° SSW 17:42:05 72° ESE 17:47:14 10° NNE
Cosmos 2082 Rocket 4.3 17:37:48 10° NNW 17:40:05 12° N 17:42:23 10° NNE
Cosmos 2082 3.7 17:38:43 10° SSW 17:44:19 72° ESE 17:49:46 11° NE
SL-08 R/B 4.4 17:39:10 10° S 17:45:19 77° E 17:51:26 10° NNE
SL-24 R/B 4.2 17:39:28 10° NW 17:42:35 53° NE 17:45:39 10° ESE
COSMO-SKYMED 1 4.0 17:44:32 17° ENE 17:45:37 18° E 17:48:38 10° SE
CZ-4B DEB 4.2 17:42:46 10° ESE 17:45:48 24° ENE 17:48:52 10° N
Cosmos 2237 Rocket 3.6 17:43:40 10° NW 17:48:57 43° WSW 17:54:14 10° S
Lacrosse 4 Rocket 1.6 17:45:02 10° NW 17:49:33 85° SW 17:53:56 10° SSE
NOSS 3-1 (A) 4.4 17:45:18 10° NW 17:52:34 68° SW 18:00:29 10° SSE
Cosmos 1763 Rocket 4.2 17:45:41 10° SSE 17:50:17 33° ESE 17:53:39 17° NE
Cosmos 990 Rocket 4.3 17:48:21 10° NNW 17:53:30 71° WSW 17:58:36 10° SSE
SJ-6B 2.7 17:48:43 10° SSE 17:52:37 79° ENE 17:56:40 10° NNW
Cosmos 1461 3.5 17:49:35 10° NW 17:53:31 38° NE 17:56:17 18° E
CZ-4 DEB 3.1 17:51:53 10° SSE 17:55:31 59° ENE 17:59:12 10° N
Cosmos 2366 rocket 3.9 17:52:34 10° S 17:58:46 73° E 18:04:57 10° NNE
Lacrosse 5 1.9 17:53:26 10° WSW 17:58:31 84° NNW 18:01:53 22° ENE
Cosmos 864 Rocket 4.5 17:54:42 10° S 18:00:59 72° E 18:07:17 10° NNE
Cosmos 2297 Rocket 2.4 17:55:09 10° S 18:00:36 52° ESE 18:04:45 17° NE
UNK 4.2 17:55:10 10° N 17:59:50 65° WNW 18:04:27 10° SSW
COSMOS 2406 4.5 17:56:35 10° NNW 18:00:55 22° NNE 18:02:29 19° NE
HJ-1C 3.6 17:58:38 10° SE 18:01:31 38° ENE 18:04:25 10° N
Helios 1B rocket 4.5 18:02:57 10° N 18:06:26 26° WNW 18:09:54 10° WSW
CZ-4 R/B 4.0 18:03:51 10° SSW 18:07:00 23° W 18:10:10 10° NW
Cosmos 405 3.5 18:04:14 10° SSE 18:07:38 39° E 18:08:53 29° NE
Cosmos 1263 4.3 18:05:34 10° SSW 18:08:30 69° W 18:11:11 13° N
DELTA 2 R/B 3.7 18:08:07 10° NW 18:09:24 13° NNW 18:09:24 13° NNW
Okean 3 Rocket 4.1 18:14:18 10° SSE 18:18:25 36° E 18:19:46 29° NE
SL-16 R/B 3.2 18:15:28 10° NW 18:20:54 48° WSW 18:26:17 10° S
SJ-7 4.3 18:15:50 10° SSE 18:19:56 85° ENE 18:24:01 10° NNW
Cosmos 1125 Rocket 4.0 18:16:49 10° NNW 18:22:05 63° WSW 18:27:19 10° S
SL-24 R/B - RUBIN 2 4.1 18:18:53 10° NW 18:23:19 64° SW 18:28:04 10° SSE
PAYLOAD C 4.4 18:19:42 10° SSE 18:23:48 88° WSW 18:27:54 10° NNW
deb Chang Zheng 4 3.5 18:21:04 14° NNE 18:24:55 79° ESE 18:29:25 10° SSW
ERS-1 Rocket 3.6 18:24:11 29° E 18:25:32 34° ENE 18:30:01 10° N
Cosmos 1515 4.4 18:22:49 10° SSE 18:26:03 36° ESE 18:26:03 36° ESE
Cosmos 2218 Rocket 4.4 18:22:50 10° SSW 18:28:55 64° WNW 18:35:03 10° N
Tiangong 1 3.6 18:25:07 10° SSW 18:26:30 12° S 18:27:13 12° SSE
Cosmos 1943 3.4 18:26:51 10° NNW 18:32:21 48° NE 18:34:58 29° ESE
Resurs 1-3 3.7 18:27:00 10° SSE 18:31:23 79° WSW 18:35:49 10° NNW
PAYLOAD A 3.9 18:27:28 10° SSE 18:32:11 58° ENE 18:37:08 10° N
CZ-3A R/B 4.0 18:27:35 10° W 19:40:09 82° N 19:44:06 49° E
SKYMED 2 3.8 18:33:05 40° ENE 18:34:01 47° E 18:38:12 10° S
H-2A R/B 3.8 18:32:06 10° SSW 18:36:17 36° W 18:40:27 10° NNW
CZ-2C R/B 1.4 18:34:21 10° S 18:37:37 75° WSW 18:40:54 10° NNW
Aureole 2 Rocket 3.3 18:36:54 10° NNW 18:41:57 67° ENE 18:45:45 18° SE
Cosmos 1766 3.3 18:38:25 10° N 18:42:26 60° ENE 18:46:26 10° SSE
COSMOS 2487 3.6 18:39:06 10° NNW 18:41:27 33° N 18:41:27 33° N
Cosmos 2221 4.5 18:40:50 10° N 18:41:46 16° N 18:41:46 16° N
Resurs 01 Rocket 3.2 18:41:02 10° SSW 18:45:08 37° W 18:49:16 10° NNW
ATLAS 2AS CENTAUR R/B 4.2 18:42:16 10° NW 18:49:47 44° WSW 18:57:07 10° S
CZ-2C R/B 2.4 18:44:22 24° SE 18:47:04 53° ENE 18:51:53 10° N
Aureole 3 4.1 18:42:27 10° SW 18:45:29 42° WNW 18:48:19 15° N
Cosmos 372 Rocket 3.9 18:43:53 10° NNW 18:49:11 88° ENE 18:54:26 10° SSE
Cosmos 1271 Rocket 2.6 18:44:28 10° S 18:48:23 85° ESE 18:49:03 60° NNE
Cosmos 1821 Rocket 4.0 18:45:11 10° SSE 18:51:06 53° E 18:55:07 21° NNE
Cosmos 2239 Rocket 4.4 18:46:37 10° S 18:52:38 62° E 18:57:49 15° NNE
Cosmos 841 Rocket 3.4 18:47:08 10° SSW 18:52:18 83° WNW 18:54:52 31° NNE
SL-16 R/B 3.9 18:48:49 10° N 18:54:19 35° WNW 18:59:47 10° WSW
NOAA 12 3.9 18:52:50 10° SSE 18:58:03 76° ENE 19:03:18 10° NNW
USA 234 3.7 18:56:09 13° SE 19:01:57 59° SW 19:08:25 10° WNW
Celestis-02/Orion 38 4.4 18:59:43 52° ENE 19:00:51 71° ESE 19:05:55 10° SSW
Cosmos 1900 4.2 18:57:02 10° NW 19:02:02 90° NE 19:03:24 49° SE
SAR-Lupe-2 4.3 18:57:40 10° S 19:01:10 52° WSW 19:04:41 10° NNW
MOZ.5/SAFIR/RUBIN 5/SL-8 3.8 19:00:58 28° N 19:03:26 78° WNW 19:08:04 10° SSW
Cosmos 1953 4.2 19:03:43 10° N 19:05:05 21° N 19:05:05 21° N
IDEFIX/ARIANE 42P 3.7 19:11:55 30° N 19:11:55 30° N 19:14:40 10° N
Abrixas rocket 3.8 19:05:01 10° WSW 19:07:34 33° SSW 19:07:34 33° SSW
Cosmos 839 Rocket 3.9 19:05:37 10° SSW 19:12:04 73° SE 19:13:28 54° ENE
Cosmos 2227 Rocket 3.3 19:07:00 10° WSW 19:12:16 40° NW 19:15:23 22° N
NOSS 3-4 (A) 3.9 19:08:28 10° NW 19:15:06 52° NNE 19:16:02 49° NE
NOSS 3-4 (C) 3.9 19:08:34 10° NW 19:15:12 52° NNE 19:16:08 49° NE
Timation 2 Rocket 4.4 19:09:25 10° NNW 19:14:31 40° NNE 19:14:31 40° NNE
Cosmos 1066 Rocket 4.1 19:09:55 10° SSW 19:15:23 87° WNW 19:18:09 32° N
ISS -1.7 19:10:38 10° W 19:12:42 35° W 19:12:42 35° W
Cosmos 2084 Rocket 4.4 19:11:52 10° W 19:15:45 37° NNW 19:15:53 37° NNW
Meteor 1-21 4.1 19:16:01 10° S 19:21:43 83° E 19:23:12 52° NNE
COSMO-SKYMED 1 2.9 19:21:44 58° NW 19:22:12 63° WNW 19:26:29 10° SSW
Cosmos 2082 Rocket 4.3 19:23:41 10° NNW 19:25:32 14° N 19:25:32 14° N
Cosmos 967 Rocket 4.3 19:25:00 10° NW 19:31:20 76° NE 19:31:40 74° ENE
Cosmos 1763 Rocket 4.3 19:26:56 10° SW 19:31:59 48° WNW 19:33:44 35° N
Cosmos 2123 Rocket 4.2 19:27:46 10° NNW 19:33:57 71° W 19:40:08 10° S
Cosmos 1461 3.9 19:28:57 10° NW 19:33:01 46° SW 19:33:01 46° SW
Lacrosse 5 2.6 19:36:49 10° W 19:40:59 47° NW 19:40:59 47° NW
Cosmos 2297 Rocket 3.3 19:39:36 10° WSW 19:44:52 39° NW 19:46:35 31° N
COSMOS 2406 3.9 19:40:37 10° NNW 19:44:36 45° N 19:44:36 45° N
ATLAS CENTAUR R/B 3.3 19:42:52 10° W 19:47:09 68° N 19:48:23 58° NE
Cosmos 1605 Rocket 4.1 19:52:33 10° SSW 19:58:00 69° SW 19:58:00 69° SW
ERS-1 Rocket 3.9 20:04:12 44° W 20:04:13 44° W 20:09:04 10° NNW
Cosmos 1943 4.3 20:11:08 10° NW 20:16:22 40° WSW 20:16:52 39° WSW
CZ-2C R/B 4.4 20:23:45 20° SW 20:25:40 25° W 20:29:44 10° NW
